Litchfield, MN

4:55 AM CST on December 03, 2016 (GMT -0600)
Litchfield Municipal

Weather History for KLJF - December, 2015

Change the Weather History Date:

Tuesday, December 15, 2015

  Actual Average Record
Temperature  
Mean Temperature 32 °F -  
Max Temperature 33 °F 26 °F 48 °F (1959)
Min Temperature 30 °F 10 °F -19 °F (1961)
Degree Days  
Heating Degree Days 34    
Moisture  
Dew Point 31 °F    
Average Humidity 100    
Maximum Humidity 100    
Minimum Humidity 93    
Precipitation  
Precipitation 0.00 in - - ()
Sea Level Pressure  
Sea Level Pressure 29.80 in    
Wind  
Wind Speed 8 mph (ENE)    
Max Wind Speed 16 mph    
Max Gust Speed 22 mph    
Visibility 7 miles    
Events Snow    
Averages and records for this station are not official NWS values.
T = Trace of Precipitation, MM = Missing Value Source: NWS Daily Summary

Daily Weather History Graph

Daily Weather History Graph

Search for Another Location

Airport or City:

Trip Planner

Search our weather history database for the weather conditions in past years. The results will help you decide how hot, cold, wet, or windy it might be!

Date:

Astronomy

Dec. 15, 2015 Rise Set
Actual Time 7:49 AM CST 4:36 PM CST
Civil Twilight 7:15 AM CST 5:10 PM CST
Nautical Twilight 6:38 AM CST 5:47 PM CST
Astronomical Twilight 6:02 AM CST 6:23 PM CST
Moon 10:44 AM CST (12/15) 9:25 PM CST (12/15)
Length of Visible Light 9h 54m
Length of Day
8h 47m
Waxing Crescent, 20% of the Moon is Illuminated
Dec 15
Waxing Crescent
Dec 18
First Quarter
Dec 25
Full
Jan 1
Last Quarter
Jan 9
New

Hourly Weather History & Observations

Time (CST) Temp. Windchill Dew Point Humidity Pressure Visibility Wind Dir Wind Speed Gust Speed Precip Events Conditions
12:12 AM 30.2 °F 23.4 °F 30.2 °F 100% 29.76 in 10.0 mi NNE 6.9 mph - N/A   Overcast
12:33 AM 30.2 °F 21.9 °F 30.2 °F 100% 29.76 in 10.0 mi NNE 9.2 mph - N/A   Overcast
12:53 AM 30.2 °F 23.4 °F 30.2 °F 100% 29.78 in 10.0 mi NNE 6.9 mph - N/A   Overcast
1:13 AM 30.2 °F 24.3 °F 30.2 °F 100% 29.80 in 10.0 mi North 5.8 mph - N/A   Overcast
1:33 AM 30.2 °F 24.3 °F 30.2 °F 100% 29.81 in 10.0 mi NNE 5.8 mph - N/A   Overcast
1:52 AM 30.2 °F 25.4 °F 30.2 °F 100% 29.82 in 7.0 mi North 4.6 mph - N/A   Overcast
2:13 AM 30.2 °F 23.4 °F 30.2 °F 100% 29.82 in 5.0 mi NNE 6.9 mph - N/A   Overcast
2:33 AM 30.2 °F 24.3 °F 30.2 °F 100% 29.83 in 5.0 mi NNE 5.8 mph - N/A   Overcast
2:52 AM 30.2 °F 26.7 °F 30.2 °F 100% 29.85 in 7.0 mi NNE 3.5 mph - N/A   Overcast
3:13 AM 30.2 °F 22.6 °F 30.2 °F 100% 29.83 in 7.0 mi NNE 8.1 mph - N/A   Overcast
3:33 AM 30.2 °F 23.4 °F 30.2 °F 100% 29.84 in 7.0 mi NNE 6.9 mph - N/A   Overcast
3:52 AM 30.2 °F 22.6 °F 30.2 °F 100% 29.83 in 4.0 mi NNE 8.1 mph - N/A   Overcast
4:13 AM 30.2 °F 24.3 °F 30.2 °F 100% 29.85 in 4.0 mi NNE 5.8 mph - N/A   Overcast
4:33 AM 30.2 °F 24.3 °F 30.2 °F 100% 29.85 in 7.0 mi NE 5.8 mph - N/A   Overcast
4:52 AM 30.2 °F 24.3 °F 30.2 °F 100% 29.85 in 10.0 mi NE 5.8 mph - N/A   Overcast
5:13 AM 30.2 °F 24.3 °F 30.2 °F 100% 29.86 in 10.0 mi NE 5.8 mph - N/A   Overcast
5:32 AM 30.2 °F 24.3 °F 30.2 °F 100% 29.86 in 10.0 mi ENE 5.8 mph - N/A   Overcast
5:53 AM 30.2 °F 25.4 °F 30.2 °F 100% 29.87 in 10.0 mi East 4.6 mph - N/A   Overcast
6:12 AM 30.2 °F 25.4 °F 30.2 °F 100% 29.87 in 5.0 mi NE 4.6 mph - N/A   Overcast
6:33 AM 30.2 °F 25.4 °F 30.2 °F 100% 29.88 in 7.0 mi NE 4.6 mph - N/A   Overcast
6:53 AM 30.2 °F 23.4 °F 30.2 °F 100% 29.88 in 7.0 mi ENE 6.9 mph - N/A   Overcast
7:12 AM 30.2 °F 24.3 °F 30.2 °F 100% 29.89 in 7.0 mi ENE 5.8 mph - N/A Snow Light Snow
7:33 AM 30.2 °F 25.4 °F 30.2 °F 100% 29.89 in 10.0 mi ENE 4.6 mph - N/A   Overcast
7:52 AM 30.2 °F 24.3 °F 30.2 °F 100% 29.89 in 10.0 mi ENE 5.8 mph - N/A   Overcast
8:13 AM 30.2 °F 25.4 °F 30.2 °F 100% 29.90 in 10.0 mi East 4.6 mph - N/A   Overcast
8:33 AM 30.2 °F 24.3 °F 30.2 °F 100% 29.91 in 5.0 mi East 5.8 mph - N/A   Overcast
8:52 AM 30.2 °F 23.4 °F 30.2 °F 100% 29.91 in 2.5 mi East 6.9 mph - N/A   Overcast
9:13 AM 30.2 °F 22.6 °F 30.2 °F 100% 29.90 in 2.0 mi East 8.1 mph - N/A   Overcast
9:33 AM 30.2 °F 24.3 °F 30.2 °F 100% 29.90 in 2.5 mi East 5.8 mph - N/A   Overcast
9:52 AM 30.2 °F 21.3 °F 30.2 °F 100% 29.90 in 5.0 mi East 10.4 mph - N/A   Overcast
10:13 AM 30.2 °F 21.9 °F 30.2 °F 100% 29.90 in 10.0 mi East 9.2 mph - N/A   Overcast
10:32 AM 30.2 °F 21.9 °F 30.2 °F 100% 29.90 in 7.0 mi East 9.2 mph - N/A   Overcast
10:53 AM 30.2 °F 21.9 °F 30.2 °F 100% 29.89 in 7.0 mi East 9.2 mph - N/A   Overcast
11:12 AM 30.2 °F 21.9 °F 30.2 °F 100% 29.87 in 7.0 mi East 9.2 mph - N/A   Overcast
11:33 AM 32.0 °F 24.2 °F 32.0 °F 100% 29.87 in 7.0 mi East 9.2 mph - N/A   Overcast
11:53 AM 30.2 °F 21.9 °F 30.2 °F 100% 29.86 in 10.0 mi East 9.2 mph - N/A   Overcast
12:12 PM 32.0 °F 24.8 °F 32.0 °F 100% 29.85 in 10.0 mi East 8.1 mph - N/A   Overcast
12:33 PM 32.0 °F 24.8 °F 32.0 °F 100% 29.86 in 10.0 mi East 8.1 mph - N/A   Overcast
12:53 PM 32.0 °F 23.6 °F 32.0 °F 100% 29.85 in 7.0 mi East 10.4 mph - N/A   Overcast
1:13 PM 32.0 °F 24.2 °F 32.0 °F 100% 29.84 in 5.0 mi ENE 9.2 mph - N/A   Overcast
1:33 PM 32.0 °F 24.8 °F 32.0 °F 100% 29.83 in 7.0 mi ENE 8.1 mph - N/A   Overcast
1:52 PM 32.0 °F 24.2 °F 32.0 °F 100% 29.83 in 10.0 mi ENE 9.2 mph - N/A   Overcast
2:13 PM 32.0 °F 24.2 °F 32.0 °F 100% 29.82 in 10.0 mi East 9.2 mph - N/A   Overcast
2:32 PM 32.0 °F 23.0 °F 32.0 °F 100% 29.81 in 10.0 mi ENE 11.5 mph - N/A   Overcast
2:53 PM 32.0 °F 22.5 °F 32.0 °F 100% 29.80 in 10.0 mi East 12.7 mph - N/A   Overcast
3:13 PM 32.0 °F 22.1 °F 32.0 °F 100% 29.79 in 10.0 mi ENE 13.8 mph 17.3 mph N/A   Overcast
3:33 PM 32.0 °F 23.0 °F 32.0 °F 100% 29.79 in 4.0 mi East 11.5 mph 17.3 mph N/A   Overcast
3:53 PM 32.0 °F 22.5 °F 32.0 °F 100% 29.78 in 10.0 mi ENE 12.7 mph 17.3 mph N/A   Overcast
4:13 PM 32.0 °F 23.0 °F 32.0 °F 100% 29.77 in 10.0 mi East 11.5 mph - N/A   Overcast
4:32 PM 32.0 °F 22.1 °F 32.0 °F 100% 29.77 in 4.0 mi East 13.8 mph 18.4 mph N/A   Overcast
4:53 PM 32.0 °F 22.5 °F 32.0 °F 100% 29.76 in 10.0 mi East 12.7 mph 20.7 mph N/A   Overcast
5:13 PM 32.0 °F 22.5 °F 32.0 °F 100% 29.75 in 10.0 mi East 12.7 mph - N/A   Overcast
5:33 PM 32.0 °F 21.6 °F 32.0 °F 100% 29.73 in 10.0 mi East 15.0 mph 20.7 mph N/A   Overcast
5:53 PM 32.0 °F 21.6 °F 32.0 °F 100% 29.71 in 10.0 mi East 15.0 mph 21.9 mph N/A   Overcast
6:12 PM 32.0 °F 21.6 °F 32.0 °F 100% 29.74 in 10.0 mi East 15.0 mph 19.6 mph N/A   Overcast
6:33 PM 32.0 °F 22.1 °F 32.0 °F 100% 29.75 in 10.0 mi East 13.8 mph 19.6 mph N/A   Overcast
6:53 PM 32.0 °F 24.2 °F 32.0 °F 100% 29.72 in 10.0 mi East 9.2 mph - N/A   Overcast
7:12 PM 32.0 °F 21.2 °F 32.0 °F 100% 29.71 in 10.0 mi East 16.1 mph 20.7 mph N/A   Overcast
7:33 PM 32.0 °F 23.0 °F 30.2 °F 93% 29.72 in 10.0 mi ESE 11.5 mph - N/A   Overcast
7:53 PM 32.0 °F 22.1 °F 32.0 °F 100% 29.70 in 10.0 mi East 13.8 mph 21.9 mph N/A   Overcast
8:12 PM 32.0 °F 21.6 °F 32.0 °F 100% 29.71 in 7.0 mi ESE 15.0 mph - N/A   Overcast
8:33 PM 32.0 °F 21.6 °F 32.0 °F 100% 29.72 in 10.0 mi ESE 15.0 mph 18.4 mph N/A   Overcast
8:53 PM 32.0 °F 23.0 °F 32.0 °F 100% 29.72 in 4.0 mi ESE 11.5 mph - N/A   Overcast
9:13 PM 32.0 °F 22.1 °F 32.0 °F 100% 29.69 in 2.5 mi East 13.8 mph - N/A   Overcast
9:32 PM 32.0 °F 22.5 °F 32.0 °F 100% 29.69 in 2.5 mi East 12.7 mph 16.1 mph N/A Snow Light Snow
9:53 PM 32.0 °F 22.1 °F 32.0 °F 100% 29.68 in 3.0 mi East 13.8 mph - N/A Snow Light Snow
10:13 PM 32.0 °F 22.5 °F 32.0 °F 100% 29.68 in 2.5 mi East 12.7 mph - N/A   Overcast
10:32 PM 33.8 °F 25.3 °F 33.8 °F 100% 29.67 in 2.5 mi East 11.5 mph - N/A   Overcast
10:53 PM 33.8 °F 25.3 °F 33.8 °F 100% 29.65 in 3.0 mi East 11.5 mph - N/A   Overcast
11:12 PM 33.8 °F 24.8 °F 33.8 °F 100% 29.65 in 3.0 mi East 12.7 mph - N/A   Overcast
11:33 PM 33.8 °F 25.3 °F 33.8 °F 100% 29.64 in 3.0 mi East 11.5 mph - N/A   Overcast
11:53 PM 33.8 °F 24.8 °F 33.8 °F 100% 29.63 in 4.0 mi East 12.7 mph - N/A   Overcast